#timestamp,LO_Frequency,Hit,StdDev 
1610568015.8,286047001.1,N
1610568035.6,286046998.3,Y
1610568055.5,286047000.2,P
1610568075.3,286047001.2,P
1610568095.1,286047000.7,N
1610568115.9,286047000.6,N
1610568135.7,286047002.3,Y
1610568155.6,286046998.2,P
1610568175.4,286046998.9,N
1610568195.2,286046998.3,N
1610568215.1,286046998.3,N
1610568216.0,286046998.3,N
1610568235.8,286046998.3,N
1610568255.6,286047000.9,N
1610568275.5,286047000.3,N
1610568295.3,286046999.8,N
1610568315.2,286047002.3,N
1610568335.9,286047000.9,N
1610568355.7,286046998.8,N
1610568375.6,286046999.1,N
1610568395.4,286046999.5,N
1610568415.2,286046999.0,N
1610568435.1,286046999.3,N
1610568436.0,286046999.3,N
1610568455.8,286047000.9,N
1610568475.7,286047000.3,N
1610568495.5,286046998.5,N
1610568515.3,286046998.7,N
1610568535.2,286047000.7,N
1610568555.0,286046998.1,N
1610568555.9,286046998.1,N
1610568575.8,286046996.5,Y
1610568595.6,286046997.2,P
1610568615.5,286046999.1,N
1610568635.3,286046998.2,N
1610568655.1,286047000.6,N
1610568675.9,286047001.0,N
1610568695.7,286046999.9,N
1610568715.5,286047001.5,N
1610568735.4,286047002.5,N
1610568755.2,286047003.9,N
1610568775.1,286047002.5,N
1610568776.0,286047002.5,N
1610568795.8,286047002.5,N
1610568815.6,286047000.1,N
1610568835.5,286047000.3,N
1610568855.3,286046998.2,N
1610568875.1,286046999.0,N
1610568895.9,286046999.1,N
1610568915.7,286047000.0,N
1610568935.6,286047000.0,N
1610568955.4,286047000.6,N
1610568975.2,286046998.5,N
1610568995.1,286047000.9,N
1610568996.0,286047000.9,N
1610569015.8,286046996.6,N
1610569035.6,286046998.6,N
1610569055.5,286046998.6,N
1610569075.3,286047000.4,N
1610569095.2,286047000.7,N
1610569115.9,286047000.3,N
1610569135.7,286046999.8,N
1610569155.6,286046999.9,N
1610569175.4,286046998.8,N
1610569195.2,286046999.0,N
1610569215.1,286046998.5,N
1610569216.0,286046998.5,N
1610569235.8,286046998.9,N
1610569255.7,286047000.7,N
1610569275.5,286047000.3,N
1610569295.3,286046998.5,N
1610569315.2,286047000.5,N
1610569335.0,286047002.1,N
1610569335.9,286047002.1,N
1610569355.8,286046999.7,N
1610569375.6,286046998.1,N
1610569395.4,286046998.2,N
1610569415.3,286047000.4,N
1610569435.1,286046998.1,N
1610569455.8,286047000.6,N
1610569475.7,286047002.4,N
1610569495.5,286047002.5,N
1610569515.3,286047002.6,N
1610569535.2,286047000.0,N
1610569555.0,286047000.0,N
1610569555.9,286047000.0,N
1610569575.8,286047001.2,N
1610569595.6,286046998.2,N
1610569615.5,286046998.6,N
1610569635.3,286046998.6,N
1610569655.1,286047001.1,N
1610569675.9,286047000.8,N
1610569695.7,286047000.7,N
1610569715.5,286047000.4,N
1610569735.4,286047000.5,N
1610569755.2,286047002.3,N
1610569775.1,286047000.2,N
1610569776.0,286047000.2,N
1610569795.8,286047000.5,N
1610569815.6,286047001.0,N
1610569835.5,286047000.1,N
1610569855.3,286047002.0,N
1610569875.2,286047000.1,N
1610569895.9,286046998.6,N
1610569915.7,286046999.7,N
1610569935.6,286047002.3,N
1610569955.4,286046998.1,N
1610569975.2,286047002.4,N
1610569995.1,286047002.2,N
1610569996.0,286047002.2,N
1610570015.8,286047002.4,N
1610570035.7,286047000.0,N
1610570055.5,286047002.4,N
1610570075.3,286047002.2,N
1610570095.2,286047002.1,N
1610570115.0,286047001.6,N
1610570115.9,286047001.6,N
1610570135.8,286047002.6,N
1610570155.6,286047002.0,N
1610570175.4,286047002.4,N
1610570195.3,286047005.6,Y
1610570215.1,286047002.4,P
1610570235.9,286047000.0,N
1610570255.7,286047001.2,N
1610570275.5,286047000.2,N
1610570295.4,286047002.1,N
1610570315.2,286047002.5,N
1610570335.0,286047002.6,N
1610570335.9,286047002.6,N
1610570355.8,286047002.3,N
1610570375.6,286047001.5,N
1610570395.5,286047002.1,N
1610570415.3,286047001.7,N
1610570435.1,286047002.1,N
1610570455.9,286047001.9,N
1610570475.7,286047002.1,N
1610570495.5,286047002.3,N
1610570515.4,286047002.2,N
1610570535.2,286047002.3,Y
1610570555.1,286047000.7,P
1610570556.0,286047000.7,N
1610570575.8,286047000.2,N
1610570595.6,286047002.3,Y
1610570615.5,286047002.7,P
1610570635.3,286047001.5,N
1610570655.2,286046999.9,N
1610570675.9,286047000.9,N
1610570695.7,286047000.6,N
1610570715.6,286047000.7,N
1610570735.4,286047000.1,N
1610570755.2,286047000.4,N
1610570775.1,286047002.6,Y
1610570776.0,286047002.6,P
1610570795.8,286046998.5,N
1610570815.7,286046998.8,N
1610570835.5,286046998.6,N
1610570855.3,286046995.4,N
1610570875.2,286046997.9,N
1610570895.0,286046997.2,N
1610570895.9,286046997.2,N
1610570915.8,286046999.5,N
1610570935.6,286046995.0,N
1610570955.4,286046995.3,N
1610570975.3,286046994.9,N
1610570995.1,286046997.5,N
1610571015.9,286046994.9,N
1610571035.7,286046997.3,N
1610571055.5,286046998.4,N
1610571075.4,286047000.9,N
1610571095.2,286047001.0,N
1610571115.0,286046999.2,N
1610571115.9,286046999.2,N
1610571135.8,286046996.7,N
1610571155.6,286046998.8,N
1610571175.5,286046996.7,N
1610571195.3,286046999.4,N
1610571215.1,286046999.4,N
1610571235.9,286047001.1,N
1610571255.7,286047000.8,N
1610571275.6,286047001.2,N
1610571295.4,286047001.2,N
1610571315.2,286046998.8,N
1610571335.1,286046998.6,N
1610571336.0,286046998.6,N
1610571355.8,286047000.9,N
1610571375.7,286047000.0,N
1610571395.5,286046999.2,N
1610571415.3,286046996.9,N
1610571435.2,286046999.4,N
1610571455.9,286046998.4,N
1610571475.7,286046998.9,N
1610571495.6,286046998.8,N
1610571515.4,286046996.7,N
1610571535.3,286046999.1,N
1610571555.1,286046999.0,N
1610571556.0,286046999.0,N
1610571575.8,286047001.2,N
1610571595.7,286046998.8,N
